Temp
37 37 37 38 38 37 37 37 38 38 38 37 37 37 37 37 37 37 38 38 38 38 39 39 40 40 40 40 40 40 40 40 40 41 41 41 41 41 42 42 42 42 42 42 42 42 42 42 42 43 44 44 45 45 46 47 47 47 47 48 48 49 49 49 50 50 51 51 51
37 37 37 38 38 37 37 37 37 37 37 37 37 37 37 37 37 37 37 38 38 38 39 39 40 40 40 40 40 40 40 40 40 40 40 40 41 41 42 42 42 42 42 42 42 42 42 42 42 42 43 44 44 44 45 46 47 47 47 47 47 48 48 49 49 50 50 50 50
36 37 37 37 36 36 35 36 36 36 36 36 37 37 37 37 37 37 37 38 38 39 39 39 39 40 40 40 40 40 40 39 39 39 39 40 40 40 41 41 41 42 42 42 42 42 42 42 42 42 43 43 43 43 44 45 46 46 46 47 47 48 48 48 49 49 50 50 49
36 36 36 36 35 35 35 35 35 35 35 36 37 37 38 38 38 37 37 38 38 38 38 38 39 39 40 40 40 40 40 40 39 39 39 39 40 40 40 41 41 41 41 42 42 42 42 42 42 42 42 42 42 43 44 44 45 46 46 47 47 47 48 48 49 49 49 49 48
35 35 35 35 35 35 35 35 35 35 35 36 37 37 37 37 37 37 37 37 37 37 38 38 39 39 40 40 39 39 39 39 39 39 38 39 39 40 40 40 40 41 41 42 42 42 42 42 42 42 42 42 43 43 44 44 45 46 46 47 47 47 47 48 48 49 49 49 48
34 35 35 35 35 35 35 35 35 35 35 36 36 36 35 36 36 36 36 36 36 37 38 38 39 39 39 39 38 38 38 38 38 38 38 38 39 39 40 40 40 40 41 41 41 42 42 42 42 42 43 43 43 44 44 45 45 46 46 46 46 46 47 47 47 48 48 48 47
34 34 35 35 35 34 34 34 34 35 35 35 35 34 34 34 34 34 35 35 36 36 37 38 38 38 38 38 38 38 38 38 38 38 38 38 38 39 39 39 40 40 40 40 40 40 40 41 42 42 43 43 43 44 45 45 45 46 46 46 46 46 45 45 45 46 46 46 46
34 34 34 34 34 34 33 34 34 34 34 34 34 33 33 32 33 34 34 35 35 36 36 37 37 37 37 37 37 37 37 37 37 37 37 37 37 38 38 39 39 40 40 40 39 39 40 41 41 42 42 43 43 44 44 45 45 46 46 45 46 45 45 44 45 45 45 45 45
34 34 34 33 33 33 33 33 33 33 33 34 33 33 32 32 33 33 34 34 35 35 36 36 36 37 37 37 37 37 37 37 37 37 37 37 37 38 38 38 39 39 39 39 39 39 39 40 41 42 42 43 43 43 44 44 45 46 46 46 46 45 45 45 44 44 44 44 44
33 33 33 32 32 33 33 33 33 33 33 33 33 32 32 32 33 33 33 34 35 35 35 35 36 36 37 37 37 37 37 37 36 36 37 37 37 37 37 37 38 38 39 39 38 38 38 39 41 42 42 43 43 43 44 45 46 46 46 46 46 45 45 45 44 44 44 44 44
32 32 32 32 32 32 32 32 32 33 33 33 32 31 31 31 32 33 34 35 34 34 34 35 36 36 36 36 37 37 37 37 37 36 36 36 36 36 37 37 37 38 38 38 38 38 38 39 41 42 43 43 44 44 45 46 46 46 46 46 46 45 45 44 44 44 44 44 43
31 31 31 31 31 31 31 31 32 32 32 32 32 31 31 31 32 33 34 34 33 33 34 35 35 36 36 36 36 36 36 36 37 36 36 36 35 35 36 36 37 38 38 38 38 38 38 38 40 42 43 43 44 44 45 46 46 46 46 46 45 44 44 44 43 43 43 43 43
30 30 30 31 31 31 30 30 31 31 31 31 31 31 31 31 32 33 33 33 33 33 34 35 35 36 36 36 36 36 36 36 36 36 36 36 36 35 35 35 36 37 38 38 38 37 37 37 38 40 41 41 42 43 44 45 45 46 46 46 44 43 43 43 43 43 43 43 43
30 30 30 30 30 30 30 30 30 31 31 30 30 30 30 31 32 33 33 32 33 33 34 34 35 36 36 36 36 35 35 36 36 35 35 35 36 35 34 34 35 36 37 37 37 37 36 36 37 38 39 40 41 42 43 44 44 44 44 44 43 42 42 42 42 42 42 42 42
29 29 29 29 29 29 29 29 30 30 30 29 29 30 30 31 32 33 33 32 33 33 33 34 34 35 36 36 36 35 35 35 35 35 35 35 35 34 34 34 35 36 36 36 36 36 36 35 35 36 37 39 40 41 42 42 42 42 42 41 41 40 40 40 40 40 41 41 40
28 28 28 28 28 28 28 29 29 29 29 29 29 29 30 30 31 32 32 32 32 33 33 33 34 34 35 36 35 35 34 34 34 34 34 33 33 33 33 34 34 35 36 36 36 35 35 35 35 35 36 37 38 39 40 40 40 40 39 39 39 39 39 39 39 39 39 39 39
26 26 27 27 27 27 28 28 29 29 28 28 28 29 29 30 30 31 32 32 32 32 32 32 33 34 34 34 34 34 34 33 33 33 32 32 32 33 33 33 34 35 35 35 35 35 35 35 34 35 35 35 36 37 37 38 38 37 37 37 37 38 38 38 38 38 38 39 39
25 25 25 26 26 26 27 27 28 28 27 27 27 28 28 29 29 30 30 31 31 31 31 31 32 33 33 33 33 33 33 32 32 32 32 32 32 32 32 33 33 34 35 35 34 34 34 34 34 34 34 34 34 35 35 36 36 36 36 36 36 36 37 37 37 37 38 38 38
24 24 24 24 25 25 26 26 27 26 26 26 26 27 27 27 28 28 29 30 31 31 31 31 32 33 33 33 32 32 32 32 31 31 31 32 32 32 32 32 33 33 34 34 34 34 33 34 34 33 33 33 33 34 34 34 34 35 35 35 35 35 35 36 36 36 36 37 38
23 23 23 24 24 25 25 26 26 26 26 26 26 26 26 26 27 27 28 29 30 31 31 31 32 33 33 33 32 32 32 32 31 31 31 32 32 32 32 32 33 33 34 34 34 34 33 33 33 33 33 33 33 33 33 33 33 34 34 34 34 34 34 35 35 35 35 36 36
22 22 23 23 24 24 25 26 26 26 25 26 25 26 26 26 26 27 28 29 30 31 31 31 32 33 33 32 31 31 31 32 32 31 31 31 32 32 32 32 33 33 33 34 34 34 33 33 33 33 33 33 33 32 33 33 33 33 33 33 33 33 34 34 34 34 34 34 35
22 22 22 23 23 24 25 26 26 25 25 25 25 25 25 25 26 26 28 29 30 30 31 31 33 33 33 32 31 31 31 31 31 31 32 31 32 32 32 32 32 33 33 33 35 34 33 33 33 33 32 32 32 32 32 32 33 33 33 33 33 33 33 33 33 33 34 34 34
21 22 22 22 23 24 25 26 25 25 25 25 25 25 25 25 25 26 27 28 29 30 30 32 33 33 33 32 31 31 30 31 31 31 32 32 32 32 32 32 32 33 33 33 35 35 33 33 32 32 32 31 32 32 32 32 32 32 32 33 33 33 33 33 33 33 33 34 34
21 21 22 22 23 24 24 25 25 24 24 24 25 25 25 25 25 26 26 27 28 29 30 31 33 33 33 32 31 31 31 30 30 31 31 31 32 32 32 31 32 33 33 34 36 37 36 33 32 32 31 31 31 31 31 32 32 32 32 32 32 33 33 33 33 33 33 33 33
21 21 21 22 22 23 24 24 24 24 24 24 24 24 24 24 25 25 25 26 28 29 30 31 32 33 33 32 31 31 31 30 30 31 31 31 31 31 31 31 32 33 34 35 39 40 40 38 35 33 31 31 31 31 31 31 32 32 32 32 32 32 32 33 33 33 33 33 33
21 21 21 21 22 23 24 24 24 24 24 24 24 24 24 24 24 25 25 25 27 28 30 31 32 33 33 32 31 30 30 30 31 31 31 31 31 31 31 31 31 32 34 36 40 41 41 41 39 36 33 31 31 31 31 31 32 32 32 32 32 32 32 32 32 33 33 33 33
21 21 21 21 22 23 23 24 24 24 24 24 24 24 24 24 24 24 24 25 26 27 29 30 31 32 33 32 31 30 30 30 30 31 31 31 31 31 31 31 31 31 33 37 40 41 41 41 40 38 35 32 31 31 31 31 32 32 32 32 31 31 31 31 31 32 32 33 33
21 21 21 22 22 23 24 23 23 23 24 24 24 24 24 24 24 24 24 24 25 27 28 29 30 31 32 31 31 30 30 30 31 31 31 31 31 30 30 31 30 31 34 39 41 41 41 40 40 39 37 34 32 31 32 31 31 31 31 31 31 31 31 31 31 32 32 32 33
21 21 21 22 23 24 24 23 23 24 24 24 24 24 23 23 23 23 23 24 25 26 27 29 30 31 31 30 30 30 29 30 30 31 31 31 31 31 30 31 30 32 34 39 40 40 40 40 39 39 38 36 33 32 31 32 31 31 31 31 31 31 31 31 31 31 32 32 32
21 21 21 22 23 23 24 24 24 25 25 24 24 23 23 23 23 23 23 23 25 26 27 28 29 29 29 30 30 30 29 30 30 30 31 30 30 30 31 31 30 31 34 38 39 40 40 39 39 38 38 36 34 32 31 31 31 31 31 31 31 31 31 31 31 31 31 32 32
21 21 22 23 23 23 24 24 25 25 25 24 23 23 22 22 23 23 23 24 26 27 28 27 28 28 29 29 29 29 29 29 29 30 30 30 30 30 30 30 31 31 34 37 39 39 39 39 38 38 37 36 34 32 31 31 31 31 30 30 30 30 30 31 31 31 31 31 32
21 22 22 23 23 24 24 24 25 25 24 23 22 22 22 23 23 23 24 25 26 27 27 26 27 27 28 28 29 29 29 29 29 30 30 30 30 30 30 31 31 32 34 37 38 39 39 39 38 38 37 36 34 32 31 31 30 30 30 30 29 30 30 30 31 31 31 31 32
21 22 23 23 23 23 23 24 25 24 24 22 22 22 23 23 23 23 24 25 26 27 26 26 26 27 28 28 28 28 29 29 29 29 30 30 30 30 30 30 30 32 35 37 38 39 39 39 38 37 37 36 33 31 30 30 30 30 30 29 29 29 29 30 30 31 31 32 32
21 22 23 23 23 23 23 24 25 24 23 22 22 22 22 22 22 22 23 25 26 26 26 26 27 27 28 28 28 28 29 29 29 28 28 29 29 30 30 30 30 33 36 37 38 38 39 39 38 37 36 35 33 31 30 30 30 29 29 29 29 29 29 30 30 31 31 32 32
21 22 22 23 23 23 23 24 24 24 22 22 22 22 22 22 22 22 23 26 26 26 26 26 27 28 28 28 28 28 29 29 28 28 28 29 29 29 30 29 30 33 35 37 37 38 38 38 37 36 35 34 32 31 30 30 30 29 29 29 29 29 29 30 30 31 31 32 32
22 22 22 22 22 22 23 24 24 22 21 21 21 21 21 21 22 22 24 26 26 25 25 26 27 27 27 27 27 28 29 28 28 28 28 29 29 29 29 29 29 32 34 36 37 38 38 37 37 36 34 32 30 30 30 30 30 29 29 29 29 29 29 30 30 31 31 32 33
21 22 22 22 21 22 23 24 23 21 20 21 21 21 21 21 22 23 24 26 24 24 24 25 26 26 27 27 26 27 28 29 29 28 28 29 29 29 29 28 29 31 33 35 36 37 38 37 36 35 33 31 29 29 29 29 29 29 29 28 28 28 29 29 30 31 31 32 34
21 21 21 21 21 22 23 24 22 21 20 20 21 21 21 21 22 23 24 26 24 24 24 25 25 26 26 27 27 27 28 29 29 29 28 28 28 28 28 28 28 30 32 34 36 37 38 38 36 35 33 30 29 28 28 28 28 28 28 28 28 28 28 29 30 30 31 32 35
21 21 21 21 21 21 22 23 21 20 20 20 21 21 21 22 22 23 24 25 24 24 24 25 25 26 26 28 27 27 28 29 29 29 29 28 28 29 29 27 28 29 31 34 35 37 37 38 36 35 33 31 29 28 28 27 27 27 27 27 27 28 28 28 29 30 31 31 35
22 22 21 21 21 21 21 21 20 20 20 21 21 21 21 22 22 23 24 24 24 24 25 25 25 25 26 28 27 27 27 28 29 29 29 29 29 30 30 27 27 28 30 33 35 36 37 37 36 34 32 30 29 29 28 28 27 26 26 26 27 27 28 28 29 29 30 30 32
22 22 21 21 21 21 21 20 20 20 20 21 21 21 22 23 22 22 22 23 24 24 25 25 25 25 26 27 27 27 27 27 28 29 29 30 29 30 29 27 27 27 29 31 34 36 37 37 36 34 32 30 29 29 28 28 27 26 26 26 26 27 27 28 29 29 30 30 30
MSLP
1027.12 1026.88 1026.68 1026.40 1026.16 1025.92 1025.68 1025.40 1025.12 1024.88 1024.64 1024.36 1024.04 1023.72 1023.40 1023.12 1022.80 1022.48 1022.16 1021.92 1021.60 1021.24 1020.88 1020.52 1020.20 1019.88 1019.60 1019.28 1019.04 1018.76 1018.44 1018.12 1017.88 1017.56 1017.20 1016.88 1016.56 1016.24 1015.92 1015.60 1015.36 1015.08 1014.84 1014.56 1014.28 1014.04 1013.80 1013.52 1013.24 1012.88 1012.52 1012.16 1011.80 1011.48 1011.16 1010.88 1010.64 1010.32 1010.04 1009.84 1009.60 1009.32 1009.12 1008.88 1008.68 1008.44 1008.28 1008.16 1008.00
1027.28 1027.04 1026.80 1026.56 1026.32 1026.12 1025.88 1025.56 1025.28 1025.00 1024.76 1024.52 1024.16 1023.84 1023.48 1023.20 1022.92 1022.56 1022.28 1022.00 1021.72 1021.40 1021.00 1020.64 1020.28 1019.96 1019.64 1019.32 1019.08 1018.80 1018.48 1018.16 1017.84 1017.48 1017.16 1016.80 1016.44 1016.12 1015.76 1015.44 1015.16 1014.92 1014.64 1014.32 1014.08 1013.84 1013.52 1013.24 1013.00 1012.68 1012.28 1011.88 1011.60 1011.28 1010.96 1010.72 1010.48 1010.20 1009.88 1009.64 1009.40 1009.16 1008.96 1008.72 1008.44 1008.24 1008.04 1007.88 1007.84
1027.40 1027.16 1026.88 1026.64 1026.44 1026.20 1025.96 1025.60 1025.32 1025.08 1024.84 1024.56 1024.24 1023.88 1023.60 1023.28 1023.04 1022.72 1022.40 1022.12 1021.84 1021.48 1021.12 1020.72 1020.32 1020.00 1019.68 1019.36 1019.08 1018.84 1018.56 1018.24 1017.88 1017.52 1017.12 1016.72 1016.36 1016.00 1015.68 1015.32 1015.00 1014.68 1014.40 1014.16 1013.88 1013.56 1013.24 1012.96 1012.72 1012.40 1012.00 1011.60 1011.32 1011.04 1010.76 1010.48 1010.28 1010.04 1009.72 1009.40 1009.16 1008.96 1008.72 1008.44 1008.20 1008.00 1007.80 1007.64 1007.64
1027.56 1027.28 1027.00 1026.72 1026.48 1026.28 1026.04 1025.76 1025.48 1025.20 1024.92 1024.60 1024.24 1023.92 1023.68 1023.44 1023.16 1022.88 1022.56 1022.20 1021.88 1021.52 1021.16 1020.76 1020.36 1020.00 1019.68 1019.40 1019.12 1018.88 1018.56 1018.24 1017.88 1017.48 1017.08 1016.68 1016.28 1015.96 1015.60 1015.20 1014.80 1014.48 1014.20 1013.88 1013.56 1013.24 1012.92 1012.72 1012.44 1012.08 1011.72 1011.36 1011.08 1010.84 1010.56 1010.32 1010.08 1009.80 1009.52 1009.20 1008.96 1008.72 1008.48 1008.20 1007.96 1007.72 1007.56 1007.44 1007.44
1027.68 1027.44 1027.16 1026.88 1026.64 1026.44 1026.20 1025.96 1025.64 1025.36 1025.00 1024.64 1024.28 1023.96 1023.72 1023.52 1023.28 1022.96 1022.56 1022.24 1021.92 1021.60 1021.20 1020.84 1020.44 1020.04 1019.72 1019.44 1019.16 1018.84 1018.52 1018.20 1017.84 1017.44 1017.08 1016.64 1016.24 1015.84 1015.44 1015.04 1014.72 1014.36 1014.00 1013.64 1013.32 1013.00 1012.72 1012.44 1012.08 1011.68 1011.32 1011.08 1010.80 1010.56 1010.28 1010.12 1009.88 1009.60 1009.28 1009.00 1008.80 1008.56 1008.36 1008.04 1007.80 1007.60 1007.36 1007.24 1007.28
1027.76 1027.56 1027.24 1026.96 1026.72 1026.52 1026.28 1026.00 1025.76 1025.48 1025.12 1024.72 1024.36 1024.08 1023.88 1023.68 1023.44 1023.08 1022.72 1022.32 1021.96 1021.60 1021.20 1020.80 1020.44 1020.04 1019.72 1019.40 1019.12 1018.80 1018.48 1018.16 1017.76 1017.44 1017.04 1016.56 1016.16 1015.80 1015.40 1014.96 1014.60 1014.24 1013.88 1013.56 1013.20 1012.84 1012.48 1012.12 1011.72 1011.28 1010.96 1010.72 1010.44 1010.20 1010.00 1009.84 1009.64 1009.36 1009.04 1008.80 1008.60 1008.44 1008.20 1008.00 1007.72 1007.52 1007.32 1007.20 1007.24
1027.92 1027.68 1027.36 1027.12 1026.88 1026.64 1026.40 1026.12 1025.84 1025.48 1025.16 1024.76 1024.44 1024.16 1024.00 1023.76 1023.48 1023.12 1022.72 1022.36 1022.00 1021.56 1021.16 1020.76 1020.40 1020.04 1019.72 1019.36 1019.08 1018.76 1018.44 1018.08 1017.72 1017.32 1016.96 1016.56 1016.16 1015.76 1015.40 1014.96 1014.56 1014.16 1013.80 1013.44 1013.08 1012.72 1012.28 1011.88 1011.44 1011.00 1010.56 1010.32 1010.08 1009.88 1009.68 1009.56 1009.32 1009.12 1008.84 1008.60 1008.40 1008.24 1008.12 1007.96 1007.76 1007.60 1007.44 1007.32 1007.28
1028.04 1027.80 1027.56 1027.28 1027.00 1026.72 1026.44 1026.16 1025.88 1025.52 1025.16 1024.80 1024.48 1024.28 1024.04 1023.80 1023.48 1023.12 1022.72 1022.32 1021.96 1021.60 1021.16 1020.80 1020.44 1020.08 1019.72 1019.44 1019.08 1018.72 1018.40 1018.00 1017.60 1017.28 1016.88 1016.56 1016.16 1015.72 1015.32 1014.88 1014.44 1014.00 1013.64 1013.32 1012.96 1012.56 1012.12 1011.64 1011.12 1010.68 1010.28 1010.04 1009.84 1009.60 1009.44 1009.32 1009.16 1008.88 1008.64 1008.40 1008.16 1008.00 1007.96 1007.88 1007.76 1007.60 1007.52 1007.44 1007.28
1028.08 1027.84 1027.60 1027.32 1027.12 1026.84 1026.48 1026.16 1025.88 1025.52 1025.16 1024.84 1024.56 1024.32 1024.12 1023.84 1023.44 1023.08 1022.68 1022.28 1021.96 1021.60 1021.20 1020.84 1020.44 1020.08 1019.72 1019.40 1019.08 1018.72 1018.40 1018.00 1017.64 1017.24 1016.88 1016.52 1016.16 1015.72 1015.24 1014.80 1014.40 1013.92 1013.52 1013.20 1012.84 1012.44 1011.92 1011.36 1010.80 1010.32 1010.00 1009.76 1009.60 1009.40 1009.24 1009.16 1008.96 1008.72 1008.44 1008.16 1008.00 1007.84 1007.76 1007.76 1007.72 1007.64 1007.56 1007.44 1007.28
1028.16 1027.92 1027.64 1027.40 1027.12 1026.88 1026.56 1026.20 1025.88 1025.56 1025.16 1024.84 1024.56 1024.36 1024.12 1023.80 1023.44 1023.08 1022.72 1022.36 1022.00 1021.60 1021.24 1020.88 1020.44 1020.04 1019.68 1019.32 1019.00 1018.72 1018.40 1018.04 1017.64 1017.24 1016.88 1016.48 1016.12 1015.68 1015.28 1014.88 1014.40 1013.92 1013.48 1013.12 1012.72 1012.28 1011.72 1011.12 1010.48 1010.00 1009.64 1009.44 1009.32 1009.20 1009.08 1008.92 1008.72 1008.44 1008.16 1008.00 1007.84 1007.72 1007.68 1007.68 1007.72 1007.68 1007.60 1007.44 1007.28
1028.28 1028.04 1027.80 1027.48 1027.20 1026.92 1026.56 1026.20 1025.88 1025.52 1025.16 1024.84 1024.56 1024.32 1024.08 1023.80 1023.44 1023.12 1022.72 1022.36 1022.00 1021.60 1021.24 1020.84 1020.40 1020.00 1019.68 1019.32 1019.00 1018.72 1018.40 1018.04 1017.64 1017.24 1016.88 1016.48 1016.12 1015.72 1015.32 1014.92 1014.44 1013.96 1013.52 1013.12 1012.68 1012.16 1011.60 1010.92 1010.24 1009.68 1009.28 1009.16 1009.04 1008.92 1008.80 1008.64 1008.44 1008.20 1008.00 1007.88 1007.72 1007.64 1007.60 1007.68 1007.76 1007.80 1007.72 1007.48 1007.28
1028.44 1028.16 1027.88 1027.60 1027.28 1027.00 1026.64 1026.28 1025.88 1025.52 1025.16 1024.88 1024.60 1024.36 1024.12 1023.76 1023.48 1023.08 1022.68 1022.28 1021.96 1021.60 1021.20 1020.76 1020.36 1020.00 1019.68 1019.32 1019.08 1018.76 1018.44 1018.04 1017.68 1017.28 1016.92 1016.56 1016.16 1015.76 1015.36 1015.00 1014.48 1014.00 1013.56 1013.16 1012.72 1012.28 1011.72 1011.08 1010.32 1009.76 1009.36 1009.12 1008.88 1008.72 1008.56 1008.44 1008.28 1008.08 1007.88 1007.72 1007.68 1007.60 1007.56 1007.64 1007.76 1007.84 1007.76 1007.56 1007.36
1028.56 1028.28 1028.00 1027.68 1027.36 1027.00 1026.68 1026.32 1025.96 1025.60 1025.24 1024.96 1024.72 1024.44 1024.16 1023.84 1023.44 1023.04 1022.68 1022.28 1021.92 1021.56 1021.16 1020.72 1020.36 1020.00 1019.68 1019.40 1019.12 1018.80 1018.44 1018.12 1017.72 1017.32 1017.00 1016.60 1016.20 1015.84 1015.44 1015.00 1014.52 1014.08 1013.68 1013.28 1012.88 1012.44 1011.92 1011.36 1010.76 1010.20 1009.76 1009.40 1009.00 1008.68 1008.44 1008.24 1008.08 1007.96 1007.84 1007.72 1007.64 1007.60 1007.60 1007.68 1007.76 1007.76 1007.68 1007.56 1007.44
1028.72 1028.40 1028.08 1027.76 1027.44 1027.12 1026.76 1026.40 1026.00 1025.64 1025.32 1025.00 1024.80 1024.52 1024.20 1023.88 1023.44 1023.08 1022.72 1022.32 1021.96 1021.56 1021.16 1020.76 1020.36 1020.04 1019.72 1019.44 1019.16 1018.88 1018.52 1018.16 1017.76 1017.40 1017.04 1016.72 1016.32 1015.92 1015.52 1015.08 1014.60 1014.20 1013.84 1013.44 1013.04 1012.64 1012.16 1011.68 1011.16 1010.60 1010.12 1009.60 1009.16 1008.76 1008.44 1008.16 1008.00 1007.96 1007.92 1007.88 1007.72 1007.72 1007.72 1007.72 1007.76 1007.72 1007.64 1007.60 1007.64
1028.76 1028.48 1028.16 1027.88 1027.56 1027.20 1026.88 1026.52 1026.16 1025.80 1025.44 1025.16 1024.88 1024.60 1024.28 1023.88 1023.48 1023.12 1022.72 1022.32 1021.96 1021.60 1021.16 1020.80 1020.40 1020.04 1019.76 1019.48 1019.24 1018.92 1018.56 1018.20 1017.80 1017.44 1017.12 1016.76 1016.40 1016.04 1015.64 1015.16 1014.72 1014.32 1013.96 1013.60 1013.24 1012.84 1012.40 1011.96 1011.48 1011.00 1010.44 1009.92 1009.44 1009.00 1008.64 1008.40 1008.24 1008.16 1008.12 1008.04 1008.00 1007.96 1007.88 1007.88 1007.76 1007.72 1007.72 1007.72 1007.76
1028.84 1028.56 1028.28 1028.00 1027.64 1027.32 1027.00 1026.64 1026.28 1025.96 1025.64 1025.36 1025.00 1024.72 1024.32 1023.96 1023.60 1023.16 1022.80 1022.36 1021.96 1021.56 1021.16 1020.84 1020.44 1020.04 1019.72 1019.48 1019.28 1019.00 1018.64 1018.28 1017.88 1017.56 1017.20 1016.88 1016.52 1016.16 1015.72 1015.28 1014.88 1014.44 1014.08 1013.72 1013.40 1013.00 1012.56 1012.20 1011.84 1011.40 1010.92 1010.40 1009.88 1009.52 1009.20 1008.92 1008.72 1008.60 1008.48 1008.40 1008.32 1008.28 1008.16 1008.00 1007.88 1007.84 1007.88 1007.92 1007.88
1028.96 1028.72 1028.40 1028.08 1027.72 1027.44 1027.12 1026.76 1026.44 1026.12 1025.80 1025.48 1025.12 1024.76 1024.40 1024.04 1023.68 1023.28 1022.88 1022.48 1022.04 1021.60 1021.20 1020.84 1020.44 1020.08 1019.76 1019.52 1019.28 1019.00 1018.72 1018.36 1018.00 1017.68 1017.36 1017.00 1016.64 1016.28 1015.84 1015.40 1015.00 1014.60 1014.28 1013.92 1013.60 1013.16 1012.72 1012.40 1012.12 1011.72 1011.36 1010.96 1010.52 1010.16 1009.88 1009.60 1009.40 1009.20 1009.08 1008.92 1008.76 1008.60 1008.44 1008.24 1008.08 1008.08 1008.08 1008.04 1007.96
1029.12 1028.84 1028.52 1028.20 1027.84 1027.48 1027.16 1026.88 1026.56 1026.24 1025.92 1025.60 1025.20 1024.84 1024.48 1024.16 1023.80 1023.40 1022.96 1022.56 1022.12 1021.68 1021.24 1020.80 1020.44 1020.16 1019.84 1019.56 1019.36 1019.12 1018.84 1018.48 1018.16 1017.84 1017.48 1017.16 1016.80 1016.40 1015.96 1015.52 1015.16 1014.76 1014.44 1014.12 1013.84 1013.44 1013.00 1012.60 1012.32 1012.00 1011.72 1011.40 1011.04 1010.76 1010.48 1010.20 1010.00 1009.84 1009.68 1009.48 1009.28 1009.00 1008.72 1008.52 1008.36 1008.28 1008.28 1008.24 1008.16
1029.24 1028.96 1028.64 1028.28 1027.96 1027.60 1027.28 1026.92 1026.60 1026.28 1026.00 1025.68 1025.28 1024.96 1024.56 1024.24 1023.88 1023.44 1023.00 1022.56 1022.12 1021.72 1021.28 1020.84 1020.44 1020.12 1019.84 1019.60 1019.44 1019.16 1018.88 1018.60 1018.28 1017.92 1017.60 1017.24 1016.88 1016.48 1016.04 1015.64 1015.28 1014.92 1014.56 1014.24 1013.96 1013.64 1013.24 1012.88 1012.56 1012.28 1012.04 1011.76 1011.44 1011.16 1010.88 1010.68 1010.48 1010.32 1010.16 1010.00 1009.72 1009.44 1009.16 1008.88 1008.72 1008.64 1008.60 1008.56 1008.40
1029.40 1029.08 1028.76 1028.44 1028.04 1027.68 1027.32 1027.00 1026.68 1026.36 1026.04 1025.72 1025.36 1025.00 1024.60 1024.28 1023.92 1023.52 1023.08 1022.60 1022.16 1021.72 1021.32 1020.88 1020.44 1020.08 1019.84 1019.64 1019.48 1019.24 1019.00 1018.72 1018.40 1018.04 1017.72 1017.36 1016.96 1016.56 1016.16 1015.72 1015.36 1015.00 1014.72 1014.32 1014.04 1013.76 1013.48 1013.16 1012.84 1012.56 1012.36 1012.12 1011.88 1011.60 1011.32 1011.08 1010.88 1010.72 1010.56 1010.40 1010.16 1009.92 1009.64 1009.36 1009.16 1009.08 1009.00 1008.92 1008.72
1029.52 1029.24 1028.88 1028.56 1028.16 1027.76 1027.40 1027.04 1026.72 1026.40 1026.08 1025.72 1025.40 1025.00 1024.68 1024.28 1023.92 1023.56 1023.16 1022.72 1022.28 1021.84 1021.36 1020.92 1020.48 1020.12 1019.88 1019.72 1019.56 1019.32 1019.04 1018.80 1018.52 1018.16 1017.84 1017.48 1017.08 1016.68 1016.28 1015.88 1015.48 1015.12 1014.72 1014.36 1014.08 1013.88 1013.64 1013.40 1013.16 1012.88 1012.68 1012.44 1012.24 1012.00 1011.72 1011.48 1011.28 1011.12 1010.96 1010.80 1010.56 1010.32 1010.04 1009.76 1009.60 1009.48 1009.44 1009.28 1009.08
1029.60 1029.28 1029.00 1028.64 1028.24 1027.84 1027.44 1027.04 1026.72 1026.40 1026.08 1025.76 1025.40 1025.04 1024.68 1024.28 1023.96 1023.60 1023.24 1022.80 1022.36 1021.88 1021.44 1021.00 1020.52 1020.16 1019.96 1019.80 1019.64 1019.44 1019.16 1018.88 1018.56 1018.28 1017.96 1017.60 1017.24 1016.80 1016.36 1015.96 1015.60 1015.16 1014.76 1014.44 1014.12 1013.92 1013.80 1013.60 1013.40 1013.20 1013.00 1012.80 1012.56 1012.32 1012.08 1011.88 1011.72 1011.52 1011.32 1011.16 1010.92 1010.68 1010.40 1010.16 1010.00 1009.88 1009.72 1009.60 1009.40
1029.64 1029.32 1029.00 1028.64 1028.28 1027.88 1027.44 1027.08 1026.72 1026.40 1026.08 1025.72 1025.40 1025.04 1024.68 1024.36 1024.00 1023.68 1023.28 1022.88 1022.44 1022.00 1021.52 1021.04 1020.60 1020.24 1020.00 1019.88 1019.72 1019.56 1019.24 1018.92 1018.56 1018.28 1018.00 1017.72 1017.36 1016.96 1016.52 1016.08 1015.68 1015.28 1014.88 1014.52 1014.24 1014.00 1013.88 1013.76 1013.64 1013.48 1013.28 1013.12 1012.92 1012.72 1012.44 1012.24 1012.04 1011.88 1011.68 1011.48 1011.24 1011.00 1010.72 1010.52 1010.32 1010.16 1010.00 1009.88 1009.64
1029.68 1029.36 1029.00 1028.64 1028.24 1027.84 1027.44 1027.08 1026.72 1026.36 1026.04 1025.76 1025.44 1025.12 1024.76 1024.44 1024.04 1023.68 1023.32 1022.96 1022.52 1022.08 1021.60 1021.16 1020.72 1020.36 1020.12 1019.96 1019.84 1019.60 1019.32 1019.00 1018.68 1018.36 1018.00 1017.72 1017.44 1017.12 1016.72 1016.28 1015.88 1015.48 1015.08 1014.68 1014.32 1014.04 1013.88 1013.92 1013.88 1013.72 1013.60 1013.36 1013.20 1013.00 1012.80 1012.56 1012.40 1012.20 1012.00 1011.80 1011.60 1011.32 1011.04 1010.80 1010.60 1010.44 1010.28 1010.16 1009.92
1029.68 1029.32 1029.00 1028.64 1028.24 1027.80 1027.40 1027.00 1026.72 1026.40 1026.12 1025.84 1025.52 1025.16 1024.84 1024.48 1024.12 1023.80 1023.44 1023.08 1022.60 1022.16 1021.72 1021.28 1020.88 1020.52 1020.24 1020.04 1019.88 1019.68 1019.40 1019.12 1018.80 1018.44 1018.12 1017.84 1017.56 1017.24 1016.88 1016.52 1016.16 1015.76 1015.36 1014.88 1014.40 1014.04 1013.88 1013.92 1013.96 1013.92 1013.84 1013.68 1013.52 1013.28 1013.12 1012.92 1012.72 1012.52 1012.32 1012.16 1011.88 1011.60 1011.32 1011.08 1010.88 1010.72 1010.56 1010.36 1010.16
1029.60 1029.28 1028.96 1028.60 1028.20 1027.76 1027.36 1027.00 1026.72 1026.44 1026.16 1025.88 1025.52 1025.16 1024.88 1024.56 1024.24 1023.88 1023.52 1023.16 1022.76 1022.32 1021.88 1021.44 1021.00 1020.68 1020.40 1020.16 1019.96 1019.72 1019.44 1019.20 1018.88 1018.56 1018.28 1018.00 1017.72 1017.40 1017.12 1016.76 1016.44 1016.08 1015.68 1015.12 1014.56 1014.20 1014.04 1014.00 1014.00 1014.00 1014.00 1013.88 1013.72 1013.60 1013.40 1013.16 1013.00 1012.80 1012.60 1012.40 1012.16 1011.88 1011.60 1011.32 1011.12 1010.96 1010.80 1010.60 1010.44
1029.60 1029.24 1028.92 1028.56 1028.16 1027.72 1027.40 1027.04 1026.76 1026.48 1026.16 1025.88 1025.56 1025.24 1024.92 1024.60 1024.28 1023.96 1023.60 1023.28 1022.88 1022.44 1022.00 1021.56 1021.16 1020.88 1020.56 1020.32 1020.08 1019.84 1019.60 1019.32 1019.00 1018.72 1018.44 1018.16 1017.88 1017.64 1017.32 1017.04 1016.72 1016.40 1015.88 1015.28 1014.76 1014.44 1014.28 1014.16 1014.12 1014.04 1014.04 1014.04 1013.96 1013.84 1013.68 1013.44 1013.28 1013.12 1012.88 1012.64 1012.44 1012.16 1011.88 1011.64 1011.44 1011.24 1011.04 1010.88 1010.68
1029.56 1029.20 1028.88 1028.44 1028.04 1027.72 1027.40 1027.04 1026.76 1026.44 1026.16 1025.88 1025.64 1025.36 1025.04 1024.72 1024.40 1024.04 1023.72 1023.36 1023.00 1022.56 1022.12 1021.72 1021.36 1021.04 1020.76 1020.44 1020.20 1020.00 1019.72 1019.48 1019.16 1018.88 1018.56 1018.28 1018.08 1017.84 1017.60 1017.24 1016.96 1016.60 1016.12 1015.48 1015.00 1014.72 1014.56 1014.44 1014.28 1014.16 1014.12 1014.16 1014.16 1014.04 1013.88 1013.76 1013.60 1013.40 1013.20 1013.00 1012.72 1012.48 1012.24 1012.00 1011.80 1011.60 1011.36 1011.16 1010.88
1029.60 1029.20 1028.84 1028.44 1028.04 1027.72 1027.36 1027.04 1026.72 1026.44 1026.16 1025.92 1025.72 1025.44 1025.12 1024.76 1024.48 1024.16 1023.80 1023.44 1023.04 1022.68 1022.28 1021.96 1021.60 1021.28 1021.00 1020.68 1020.40 1020.16 1019.88 1019.60 1019.28 1019.00 1018.72 1018.44 1018.20 1017.96 1017.68 1017.40 1017.12 1016.80 1016.28 1015.72 1015.28 1015.00 1014.76 1014.56 1014.44 1014.28 1014.20 1014.24 1014.28 1014.24 1014.16 1014.00 1013.84 1013.68 1013.48 1013.28 1013.08 1012.84 1012.56 1012.32 1012.12 1011.88 1011.64 1011.40 1011.16
1029.60 1029.24 1028.84 1028.40 1028.04 1027.72 1027.44 1027.08 1026.76 1026.48 1026.24 1026.00 1025.80 1025.52 1025.16 1024.84 1024.56 1024.24 1023.88 1023.52 1023.16 1022.88 1022.56 1022.24 1021.88 1021.52 1021.16 1020.88 1020.56 1020.28 1020.00 1019.72 1019.44 1019.16 1018.88 1018.56 1018.32 1018.08 1017.80 1017.52 1017.28 1016.96 1016.52 1015.96 1015.48 1015.16 1014.92 1014.72 1014.60 1014.48 1014.44 1014.40 1014.44 1014.40 1014.28 1014.16 1014.12 1013.96 1013.80 1013.64 1013.44 1013.16 1012.92 1012.64 1012.40 1012.16 1011.96 1011.72 1011.52
1029.60 1029.24 1028.84 1028.44 1028.08 1027.76 1027.44 1027.12 1026.80 1026.52 1026.28 1026.12 1025.88 1025.60 1025.28 1025.00 1024.68 1024.36 1024.04 1023.72 1023.28 1023.00 1022.72 1022.40 1022.04 1021.64 1021.28 1021.00 1020.72 1020.44 1020.20 1019.96 1019.64 1019.32 1019.00 1018.76 1018.52 1018.24 1017.96 1017.68 1017.40 1017.08 1016.68 1016.16 1015.72 1015.36 1015.16 1015.00 1014.80 1014.68 1014.56 1014.56 1014.56 1014.56 1014.52 1014.44 1014.32 1014.20 1014.12 1013.96 1013.72 1013.52 1013.24 1012.96 1012.72 1012.44 1012.28 1012.08 1011.88
1029.64 1029.24 1028.84 1028.44 1028.12 1027.80 1027.52 1027.16 1026.84 1026.56 1026.44 1026.28 1026.00 1025.72 1025.40 1025.12 1024.84 1024.52 1024.20 1023.88 1023.44 1023.04 1022.72 1022.44 1022.12 1021.72 1021.40 1021.12 1020.84 1020.56 1020.32 1020.04 1019.76 1019.48 1019.20 1018.96 1018.72 1018.44 1018.12 1017.80 1017.52 1017.20 1016.84 1016.40 1015.92 1015.56 1015.32 1015.16 1015.00 1014.84 1014.76 1014.76 1014.72 1014.72 1014.68 1014.56 1014.52 1014.44 1014.32 1014.20 1014.00 1013.80 1013.60 1013.32 1013.04 1012.84 1012.64 1012.48 1012.28
1029.64 1029.28 1028.88 1028.48 1028.16 1027.88 1027.60 1027.24 1026.88 1026.68 1026.56 1026.40 1026.16 1025.88 1025.56 1025.24 1024.92 1024.60 1024.28 1023.92 1023.52 1023.16 1022.88 1022.56 1022.28 1021.92 1021.60 1021.28 1021.00 1020.72 1020.44 1020.16 1019.92 1019.64 1019.36 1019.08 1018.80 1018.56 1018.28 1017.96 1017.68 1017.36 1016.96 1016.56 1016.12 1015.72 1015.44 1015.28 1015.12 1015.00 1014.96 1014.92 1014.92 1014.92 1014.88 1014.72 1014.68 1014.56 1014.48 1014.36 1014.24 1014.08 1013.88 1013.72 1013.48 1013.24 1013.00 1012.88 1012.72
1029.64 1029.28 1028.88 1028.56 1028.28 1028.00 1027.64 1027.28 1027.00 1026.84 1026.72 1026.52 1026.24 1026.00 1025.72 1025.36 1025.04 1024.72 1024.32 1024.00 1023.64 1023.36 1023.12 1022.80 1022.48 1022.12 1021.76 1021.48 1021.20 1020.92 1020.60 1020.32 1020.04 1019.76 1019.48 1019.20 1018.92 1018.68 1018.44 1018.16 1017.88 1017.52 1017.08 1016.68 1016.28 1015.88 1015.60 1015.36 1015.24 1015.16 1015.12 1015.04 1015.08 1015.04 1014.96 1014.88 1014.80 1014.72 1014.60 1014.48 1014.36 1014.24 1014.08 1013.88 1013.72 1013.60 1013.40 1013.16 1013.00
1029.72 1029.32 1029.00 1028.68 1028.40 1028.08 1027.72 1027.36 1027.12 1027.00 1026.84 1026.60 1026.36 1026.04 1025.76 1025.52 1025.20 1024.88 1024.52 1024.12 1023.80 1023.52 1023.24 1022.96 1022.60 1022.24 1021.92 1021.60 1021.36 1021.04 1020.72 1020.48 1020.20 1019.88 1019.60 1019.32 1019.08 1018.80 1018.56 1018.32 1018.08 1017.72 1017.28 1016.88 1016.44 1016.04 1015.72 1015.48 1015.32 1015.28 1015.24 1015.28 1015.24 1015.16 1015.08 1014.96 1014.88 1014.80 1014.72 1014.56 1014.44 1014.32 1014.20 1014.04 1013.92 1013.80 1013.64 1013.44 1013.28
1029.80 1029.44 1029.12 1028.80 1028.56 1028.20 1027.84 1027.44 1027.28 1027.12 1026.92 1026.72 1026.48 1026.16 1025.88 1025.60 1025.28 1025.00 1024.68 1024.28 1023.96 1023.64 1023.32 1023.00 1022.72 1022.36 1022.00 1021.72 1021.44 1021.16 1020.88 1020.64 1020.32 1020.04 1019.76 1019.52 1019.28 1019.00 1018.72 1018.52 1018.24 1017.92 1017.52 1017.16 1016.72 1016.28 1015.92 1015.64 1015.44 1015.40 1015.44 1015.44 1015.44 1015.36 1015.28 1015.16 1015.04 1014.96 1014.88 1014.72 1014.60 1014.48 1014.32 1014.16 1014.00 1013.92 1013.76 1013.56 1013.36
1029.88 1029.60 1029.24 1028.96 1028.68 1028.36 1027.96 1027.60 1027.44 1027.24 1027.04 1026.88 1026.60 1026.36 1026.04 1025.72 1025.44 1025.16 1024.80 1024.40 1024.08 1023.80 1023.48 1023.16 1022.84 1022.52 1022.20 1021.92 1021.60 1021.32 1021.04 1020.80 1020.48 1020.20 1019.92 1019.68 1019.44 1019.20 1018.96 1018.72 1018.44 1018.16 1017.80 1017.40 1016.96 1016.48 1016.08 1015.72 1015.56 1015.60 1015.68 1015.72 1015.68 1015.60 1015.52 1015.44 1015.28 1015.16 1015.04 1014.92 1014.80 1014.68 1014.52 1014.32 1014.16 1014.00 1013.84 1013.64 1013.40
1029.96 1029.68 1029.36 1029.04 1028.76 1028.44 1028.12 1027.76 1027.60 1027.44 1027.20 1027.00 1026.72 1026.48 1026.16 1025.88 1025.56 1025.24 1024.92 1024.56 1024.28 1024.00 1023.68 1023.32 1023.00 1022.72 1022.44 1022.12 1021.84 1021.52 1021.20 1020.92 1020.64 1020.36 1020.12 1019.88 1019.68 1019.44 1019.16 1018.96 1018.68 1018.40 1018.04 1017.64 1017.20 1016.72 1016.28 1015.88 1015.72 1015.80 1015.96 1016.00 1015.96 1015.88 1015.72 1015.64 1015.60 1015.44 1015.28 1015.20 1015.08 1014.88 1014.72 1014.56 1014.36 1014.16 1014.00 1013.84 1013.52
1030.00 1029.72 1029.44 1029.16 1028.88 1028.56 1028.28 1028.00 1027.80 1027.60 1027.36 1027.12 1026.84 1026.56 1026.28 1026.00 1025.72 1025.40 1025.12 1024.84 1024.52 1024.20 1023.88 1023.52 1023.20 1022.92 1022.60 1022.28 1021.96 1021.68 1021.36 1021.04 1020.84 1020.56 1020.28 1020.04 1019.84 1019.60 1019.40 1019.20 1018.96 1018.68 1018.32 1017.88 1017.44 1017.00 1016.56 1016.16 1016.00 1016.08 1016.24 1016.28 1016.28 1016.16 1016.00 1015.92 1015.88 1015.72 1015.60 1015.48 1015.32 1015.16 1015.00 1014.84 1014.64 1014.44 1014.28 1014.12 1013.84
1030.04 1029.80 1029.52 1029.24 1029.00 1028.72 1028.44 1028.16 1028.00 1027.72 1027.52 1027.24 1026.92 1026.64 1026.36 1026.12 1025.88 1025.60 1025.28 1025.00 1024.68 1024.36 1024.00 1023.68 1023.36 1023.08 1022.80 1022.44 1022.12 1021.84 1021.52 1021.20 1020.96 1020.72 1020.44 1020.20 1020.00 1019.72 1019.52 1019.44 1019.16 1018.88 1018.56 1018.16 1017.68 1017.24 1016.80 1016.48 1016.36 1016.40 1016.48 1016.56 1016.48 1016.40 1016.28 1016.20 1016.12 1016.00 1015.88 1015.76 1015.64 1015.48 1015.28 1015.16 1015.00 1014.80 1014.60 1014.44 1014.24
1030.16 1029.88 1029.60 1029.28 1029.08 1028.80 1028.52 1028.28 1028.04 1027.84 1027.60 1027.32 1027.04 1026.76 1026.52 1026.28 1026.04 1025.76 1025.44 1025.12 1024.80 1024.44 1024.16 1023.80 1023.48 1023.20 1022.92 1022.60 1022.28 1021.96 1021.68 1021.40 1021.12 1020.88 1020.60 1020.36 1020.16 1019.92 1019.72 1019.60 1019.36 1019.08 1018.76 1018.40 1017.92 1017.48 1017.08 1016.84 1016.68 1016.64 1016.72 1016.76 1016.72 1016.64 1016.56 1016.44 1016.36 1016.28 1016.20 1016.12 1015.96 1015.80 1015.64 1015.48 1015.28 1015.16 1015.00 1014.80 1014.64
Wind_Speed
12 12 11 11 10 9 9 9 9 9 9 9 9 9 9 9 9 9 9 9 9 9 9 9 9 11 13 15 17 17 18 18 19 20 20 20 19 18 18 17 17 16 16 16 16 15 14 13 12 10 9 9 9 10 10 9 10 10 9 9 9 10 11 11 11 11 11 10 8
14 13 13 12 11 10 10 9 9 10 10 9 9 9 9 9 9 9 9 10 9 9 10 9 10 12 14 16 16 16 17 18 19 19 19 19 19 18 18 17 16 16 16 17 16 14 13 13 12 10 9 8 9 9 10 9 10 10 11 12 10 9 9 10 10 10 10 9 7
14 14 13 12 12 12 11 10 10 12 12 11 10 9 9 9 9 9 10 10 11 11 11 10 11 12 14 15 15 16 16 17 18 18 18 17 17 17 17 16 16 17 17 16 15 14 13 13 12 11 10 9 9 9 10 10 10 10 11 12 10 9 8 8 8 8 7 6 6
15 15 14 13 14 14 13 11 13 14 13 11 11 10 10 9 9 10 10 12 12 12 11 11 11 12 13 14 16 16 17 17 18 18 17 17 17 17 17 16 16 16 16 16 16 16 16 15 12 10 10 10 11 11 10 9 10 9 9 9 9 9 8 8 7 6 6 5 5
15 15 14 13 15 15 14 13 15 15 14 11 10 10 9 10 10 11 11 12 12 12 13 14 12 12 12 14 16 17 17 17 17 16 16 16 17 16 16 16 16 16 16 16 17 17 17 16 12 10 10 10 9 9 9 10 10 10 9 8 8 8 8 7 6 5 5 5 4
15 15 15 14 16 15 14 14 16 15 14 12 11 11 11 11 11 12 13 12 13 14 15 15 14 13 14 15 16 16 16 16 15 15 15 16 16 17 17 17 17 16 16 17 18 18 18 16 12 10 10 9 9 10 11 12 11 10 10 8 7 6 6 6 5 4 4 4 5
15 16 16 16 17 16 16 16 15 15 14 12 13 14 14 14 15 16 16 14 13 13 14 13 13 14 14 14 14 15 15 15 15 15 16 15 16 17 18 18 17 17 17 17 18 18 17 15 11 10 9 9 8 9 10 11 10 10 10 8 6 5 4 5 4 3 3 3 5
15 16 17 17 17 17 18 18 16 15 13 11 13 14 16 16 17 18 17 15 13 13 13 12 14 15 15 14 14 14 15 15 15 15 15 15 16 17 18 18 17 17 17 17 18 18 17 15 11 10 9 8 7 8 9 11 12 12 11 8 6 4 3 3 3 3 3 3 3
15 16 16 16 17 17 18 18 17 16 14 13 14 15 16 17 17 17 16 13 13 13 14 13 15 16 16 15 15 15 15 15 15 15 15 15 17 18 18 17 17 17 17 16 17 18 18 15 11 9 8 7 7 8 9 12 14 14 12 7 4 3 3 3 4 4 4 4 3
15 16 16 16 17 17 18 18 16 16 15 14 15 15 15 16 16 16 14 13 13 14 15 15 15 15 15 15 14 14 14 14 14 15 16 16 17 18 18 17 17 17 17 16 16 17 17 14 12 11 10 8 9 10 12 13 15 14 12 7 4 2 2 3 5 6 6 4 5
17 17 16 15 17 17 17 17 16 15 14 14 15 15 15 15 16 15 15 14 15 15 16 16 15 15 14 13 13 14 14 14 14 15 15 16 16 17 18 18 18 18 18 17 16 15 14 13 13 12 11 9 10 10 11 13 13 13 11 8 4 2 1 2 4 6 6 5 5
17 17 16 16 17 17 16 16 14 14 14 14 15 15 14 14 15 16 16 16 16 16 15 16 15 14 13 11 12 13 14 15 15 15 15 16 16 17 17 18 18 18 18 18 16 14 13 15 15 14 11 9 8 8 9 10 11 12 11 9 4 2 0 1 3 4 5 5 4
17 17 17 17 17 17 16 15 14 13 14 15 15 15 14 14 16 17 17 16 16 15 14 15 14 13 12 11 12 13 13 14 15 15 15 16 16 17 17 17 17 17 16 16 15 14 14 16 18 17 15 12 9 8 8 8 9 9 8 6 2 0 1 1 2 3 5 5 3
17 17 17 17 17 16 15 15 13 13 14 15 15 14 14 14 16 16 16 15 15 15 14 14 13 12 11 12 12 13 14 14 15 16 16 16 17 17 17 17 17 16 14 14 14 15 16 17 18 18 17 15 11 8 7 5 4 4 3 2 2 2 2 1 1 2 3 3 2
17 17 17 17 17 16 14 15 13 13 14 15 15 14 14 13 14 15 15 16 16 15 13 13 12 11 12 12 13 14 14 15 15 15 16 17 17 18 18 17 17 16 14 14 14 15 16 17 18 18 18 17 14 11 8 5 4 4 4 4 4 4 3 3 3 2 2 1 1
16 17 17 17 17 16 15 14 12 12 13 14 15 15 14 13 13 14 16 16 15 13 13 14 13 12 11 11 12 13 14 14 14 15 15 16 17 17 17 17 17 16 14 14 14 14 15 16 16 17 18 18 16 14 12 10 8 7 7 6 6 5 5 5 5 5 4 3 3
16 16 17 17 17 17 16 15 13 13 14 15 16 15 14 13 13 14 15 16 14 14 14 15 13 11 10 10 10 11 12 13 13 14 14 15 16 16 17 17 17 16 14 12 13 14 15 15 15 16 17 18 17 16 15 13 12 11 10 9 8 7 7 7 7 7 6 5 5
16 16 16 17 17 17 16 16 15 15 15 16 15 15 14 14 14 14 15 16 15 16 16 16 14 11 10 9 9 10 10 11 12 13 14 14 15 16 16 17 16 15 14 11 11 12 13 14 15 15 15 16 15 15 15 14 13 13 12 11 10 9 8 8 8 7 7 6 6
16 16 16 16 16 16 16 16 15 15 15 15 15 15 15 15 15 15 15 16 16 17 17 16 14 11 9 9 9 10 10 11 12 13 14 14 15 15 16 17 16 15 13 10 9 10 12 13 13 14 14 15 15 14 14 13 13 12 12 11 11 10 10 10 9 8 8 7 7
16 16 16 16 16 16 16 15 15 15 15 14 15 15 16 16 16 16 16 16 17 18 17 16 14 11 9 9 10 11 11 10 11 13 14 14 15 16 16 17 15 14 13 10 8 9 11 12 13 13 14 14 14 14 14 13 13 12 11 10 10 10 10 10 9 9 8 8 8
15 15 16 16 16 15 15 14 14 14 14 14 15 16 16 16 16 16 16 17 17 18 17 17 14 11 9 8 10 11 11 10 11 12 13 14 15 16 16 16 15 13 11 11 8 8 9 11 12 12 12 13 14 14 14 13 12 12 11 10 9 9 10 9 9 8 8 8 8
15 15 15 15 15 15 15 15 14 14 14 14 15 15 16 16 16 16 16 17 17 17 17 17 14 10 8 8 9 10 11 10 11 12 12 13 14 15 16 15 15 13 11 12 8 7 8 10 10 11 11 11 12 13 13 13 12 12 11 11 10 10 9 9 8 8 7 7 7
14 14 14 13 14 15 15 15 14 14 14 14 15 15 16 16 16 16 16 16 17 17 17 15 13 10 8 7 9 10 11 12 12 12 12 13 13 15 16 15 15 13 12 11 9 7 7 8 9 9 10 9 11 11 12 12 12 11 11 11 11 10 9 8 8 7 7 7 7
14 14 13 12 14 14 14 14 13 13 13 14 14 15 15 16 16 16 16 17 17 17 16 14 12 10 8 7 8 10 12 13 13 14 14 13 14 15 15 15 14 12 11 11 10 9 9 8 7 7 8 8 9 9 10 10 10 10 10 11 10 10 9 8 8 8 8 8 7
15 14 14 13 14 14 13 13 13 13 13 13 14 14 15 15 15 15 16 16 17 17 17 16 14 12 9 7 8 10 12 13 13 14 14 14 14 14 14 13 13 12 11 13 14 15 17 13 9 7 6 7 7 7 8 9 10 10 10 10 10 9 9 9 9 9 8 8 7
14 14 14 14 14 14 14 13 13 13 13 13 14 15 15 15 15 15 15 16 17 17 16 15 14 13 11 9 9 10 11 12 12 13 13 13 14 14 13 12 11 11 12 16 17 19 21 19 15 11 7 5 6 6 7 7 9 9 10 10 10 9 9 9 9 9 9 8 8
14 14 14 14 13 14 13 13 12 12 12 13 14 14 15 14 14 14 15 15 16 16 15 14 13 13 12 10 10 11 12 12 12 12 12 12 13 13 13 11 11 11 14 17 19 21 21 19 17 14 10 6 6 6 6 6 8 9 9 9 9 10 10 10 10 9 9 8 8
15 14 14 14 14 14 14 13 13 12 12 13 13 14 14 14 15 15 15 15 15 15 14 12 12 11 9 9 10 11 12 13 12 12 11 12 12 12 12 10 10 13 17 20 22 21 20 17 16 15 13 9 6 5 6 6 7 7 7 8 9 9 10 9 9 9 9 9 8
15 15 14 15 14 14 14 14 13 13 12 12 13 13 14 14 14 15 15 15 15 14 13 12 11 10 9 10 11 11 12 12 12 11 11 12 12 12 11 11 11 15 20 23 23 21 19 16 15 15 14 11 6 5 5 5 6 6 6 7 8 8 9 9 8 8 9 9 8
15 15 15 15 14 14 14 14 14 13 12 11 12 13 13 14 14 15 15 15 15 14 13 12 12 12 12 12 11 11 11 12 11 11 12 12 13 13 12 12 11 14 20 25 23 21 19 15 14 14 13 12 8 6 4 5 5 6 6 6 8 9 9 9 10 10 10 9 9
15 15 15 15 14 14 15 15 14 12 11 11 12 13 13 14 14 15 14 14 14 14 14 14 14 14 14 12 11 11 12 11 12 12 12 12 13 13 12 12 12 14 19 26 23 21 19 16 14 13 12 12 8 6 5 5 6 6 6 7 8 9 9 9 10 10 11 10 9
15 15 15 15 15 15 15 15 13 12 11 12 13 14 14 15 14 14 13 13 14 14 15 14 15 15 14 13 12 12 12 11 12 12 12 12 12 12 12 12 11 14 19 26 24 21 18 17 14 13 12 11 8 7 6 6 6 6 6 7 9 9 10 8 9 10 11 11 10
15 15 15 15 15 15 15 14 12 11 11 13 14 14 15 15 14 14 13 13 13 14 14 14 15 15 14 13 13 12 12 11 12 12 12 12 11 11 12 11 10 13 19 25 24 21 18 17 14 12 11 10 7 6 5 6 5 5 6 7 8 9 9 9 9 9 10 10 9
14 15 15 15 15 15 15 13 12 11 12 14 14 15 15 14 14 14 13 13 13 13 13 13 14 14 13 13 13 12 11 11 11 11 11 11 11 11 12 11 9 13 20 25 25 23 19 15 13 12 10 9 6 5 5 5 5 5 6 7 7 8 8 9 8 8 8 8 8
15 15 15 15 15 15 15 13 11 12 13 14 15 15 15 14 13 13 13 14 14 13 13 13 13 13 13 13 13 12 11 11 11 11 11 11 11 12 12 12 11 16 22 25 26 24 21 14 12 11 9 7 4 4 4 5 5 6 6 7 7 8 9 8 8 7 7 6 6
14 15 15 15 15 15 14 13 12 12 13 15 15 15 14 14 13 12 13 14 13 13 13 13 13 14 14 14 13 12 11 10 11 11 11 11 12 12 12 13 13 17 22 24 26 26 23 16 10 9 9 6 4 3 4 4 4 5 6 7 7 8 8 8 7 7 7 6 5
14 14 15 15 15 14 14 14 13 13 14 15 14 14 14 13 12 12 12 13 12 12 12 13 13 14 14 14 13 12 11 10 11 11 11 11 12 12 12 13 14 16 20 24 25 26 25 20 10 9 8 6 4 4 4 4 4 5 6 6 7 7 8 7 7 7 7 7 6
13 14 14 14 14 14 14 15 14 14 14 14 14 13 12 12 11 12 12 13 12 12 12 13 13 14 14 14 13 13 12 11 11 12 11 11 11 12 12 13 13 15 18 22 25 25 24 23 13 10 9 6 5 4 4 4 4 4 5 5 6 6 7 6 6 6 7 9 10
13 14 14 14 13 13 14 14 14 13 13 14 13 13 12 11 11 11 12 12 11 12 12 12 13 13 14 14 13 12 12 11 11 12 11 11 11 13 14 13 13 14 17 21 24 24 24 22 17 13 11 7 5 4 4 4 4 4 5 5 5 6 6 6 6 6 7 9 12
13 13 14 13 13 13 13 13 13 12 12 13 13 12 12 11 11 12 12 11 11 11 11 12 13 13 13 13 12 12 12 12 11 11 11 11 12 14 15 13 13 14 16 20 23 23 23 21 18 15 12 7 5 5 4 4 4 5 5 5 5 5 5 6 6 6 6 8 10
13 13 14 13 12 12 12 12 12 12 12 12 12 12 11 11 11 11 11 11 12 11 11 10 12 13 13 13 11 10 11 12 12 12 12 12 12 13 13 12 12 13 14 17 21 22 22 20 18 15 13 7 5 5 5 4 5 5 5 5 5 5 5 6 6 6 6 7 7
Wind_Direction
341 340 339 338 338 336 332 328 327 328 328 326 322 319 318 318 318 317 317 316 314 313 312 311 313 314 316 319 319 320 320 319 319 317 316 314 311 308 306 303 300 297 295 293 293 291 289 287 284 281 277 277 278 279 279 278 279 278 278 277 275 273 268 263 260 256 252 246 241
340 339 338 338 338 335 331 328 328 329 328 324 319 318 318 320 320 319 318 317 315 313 312 311 313 315 317 320 322 323 322 321 320 318 316 314 311 309 307 304 301 298 295 293 291 289 286 284 281 278 276 274 275 276 276 275 275 276 276 275 274 271 265 259 255 252 249 244 238
341 339 337 338 339 337 334 330 329 328 327 322 319 319 321 323 322 320 318 318 316 315 313 312 314 316 319 322 324 324 324 322 321 319 317 315 313 311 308 306 303 300 297 294 291 288 284 281 278 275 273 271 273 274 275 275 274 274 275 275 274 270 263 257 252 247 242 237 231
342 339 336 336 338 337 335 331 330 329 327 322 319 320 323 326 324 320 318 317 316 315 314 314 313 316 320 324 324 324 323 323 322 320 318 316 315 313 311 310 308 306 302 298 294 290 286 282 276 271 269 269 270 271 271 271 271 272 274 276 275 272 267 261 254 245 236 230 224
342 339 336 336 338 338 336 333 331 329 326 321 320 323 326 327 324 320 318 317 317 316 315 314 313 316 321 323 323 323 322 322 323 322 320 319 318 317 317 316 315 313 310 307 303 299 293 286 277 270 266 265 265 264 265 267 269 271 273 276 275 274 271 268 261 250 238 228 218
341 339 337 337 338 338 336 333 331 328 325 320 321 325 328 328 324 321 319 317 315 314 314 314 315 317 320 322 322 322 322 322 322 322 322 322 322 322 321 320 319 318 316 314 311 306 299 290 280 270 263 261 260 261 262 264 266 268 271 272 273 275 278 280 277 270 257 243 228
340 339 338 338 339 338 335 333 331 328 325 321 324 327 329 327 323 320 319 316 315 315 315 315 317 318 319 320 321 321 322 322 321 322 323 324 324 325 324 323 321 320 319 317 314 309 303 294 282 271 263 259 258 260 261 262 264 266 267 267 271 277 287 294 295 294 286 271 244
340 339 339 338 338 336 334 333 330 328 325 324 327 329 328 325 322 321 319 317 316 316 316 315 316 316 317 318 320 322 323 322 322 323 325 326 327 327 327 325 323 322 321 319 316 311 305 297 285 272 264 259 258 260 262 263 264 263 262 262 268 279 290 296 303 309 317 319 278
341 340 338 338 337 335 334 332 330 328 326 325 328 328 327 324 323 321 320 318 317 317 316 313 313 314 316 318 321 323 324 324 323 323 325 327 329 330 330 328 326 324 323 321 317 312 307 298 284 270 260 253 254 258 262 263 264 262 259 258 263 279 297 300 313 320 329 347 348
342 340 338 337 336 335 333 332 329 328 327 326 328 327 325 324 323 322 320 318 318 317 316 312 313 314 316 320 323 325 325 324 323 323 324 327 330 331 332 330 328 327 326 326 321 316 309 299 284 270 257 247 250 254 258 260 261 261 259 257 253 270 303 314 319 319 322 335 1
342 340 338 336 335 334 332 332 329 328 328 328 329 328 326 325 323 322 321 321 319 317 315 313 313 314 317 320 323 325 325 324 324 324 324 326 328 330 331 330 328 329 331 331 327 322 315 308 296 281 265 251 249 251 255 259 261 261 261 259 246 241 300 323 315 308 306 313 349
341 338 336 335 334 333 332 332 329 328 328 330 330 328 326 324 323 323 323 323 320 318 315 314 314 316 318 320 323 324 324 324 324 324 325 327 328 329 330 329 328 331 334 335 334 331 327 325 322 314 302 284 267 258 260 265 266 265 263 258 247 226 158 328 304 293 290 298 326
340 337 335 334 334 333 333 332 330 329 330 331 330 329 327 324 324 325 324 323 321 318 316 316 315 316 318 321 323 324 324 324 325 326 327 328 329 330 330 329 328 331 336 338 339 340 341 339 338 334 327 314 294 277 269 270 271 270 268 264 263 280 37 353 304 291 288 293 301
339 337 335 334 334 334 334 333 331 331 331 332 330 328 326 324 325 326 325 323 322 319 317 316 316 317 319 323 324 324 324 323 325 326 328 329 330 330 330 329 329 332 337 340 343 347 350 349 345 340 334 325 314 301 290 284 288 294 304 326 358 14 17 9 341 315 302 294 294
338 337 335 334 334 334 334 334 332 332 332 332 330 328 326 324 325 325 325 324 322 319 317 318 317 317 319 323 325 325 324 324 325 327 329 330 330 330 330 330 331 333 337 342 346 351 355 356 352 348 344 339 335 332 332 339 354 7 16 24 26 24 23 27 34 38 37 40 72
337 336 335 333 333 333 333 333 332 332 331 330 329 327 326 325 324 325 325 325 322 319 318 319 318 317 318 323 325 325 324 324 326 328 330 330 330 329 329 330 331 333 337 343 348 354 360 2 359 356 353 352 352 353 356 1 7 13 20 26 28 29 30 37 46 50 53 59 67
336 335 333 332 331 331 331 331 331 331 330 328 328 327 326 325 324 324 325 325 322 320 320 320 318 317 318 321 324 324 324 324 326 328 329 330 330 329 329 330 331 332 334 341 348 355 2 6 4 2 360 359 360 1 4 6 8 11 13 16 19 23 28 36 43 45 45 45 49
335 333 331 330 329 328 328 329 329 329 328 327 326 326 326 325 324 323 323 323 323 322 321 321 319 318 318 322 323 324 324 324 325 327 328 330 330 330 329 330 331 331 333 338 347 355 2 8 8 6 4 3 3 4 5 7 8 9 9 8 10 15 21 28 33 37 37 33 35
334 332 330 328 326 326 326 327 327 327 327 326 325 325 326 326 325 324 324 323 324 324 324 323 321 320 321 325 325 325 326 324 325 327 329 331 331 332 331 331 332 332 333 337 348 357 3 10 11 10 8 5 4 3 3 5 6 6 4 3 6 10 15 21 25 28 27 24 23
333 331 328 325 324 324 324 325 326 326 325 325 326 326 327 328 328 327 326 325 326 326 325 324 322 322 325 329 329 329 328 325 327 329 331 332 333 334 333 332 332 333 334 337 350 2 8 12 14 13 11 8 6 4 3 2 2 1 0 359 2 6 10 16 20 21 20 17 18
331 329 326 324 322 322 323 324 325 325 325 325 327 328 329 330 330 330 328 326 327 327 327 326 323 324 329 334 332 331 329 327 329 331 333 334 334 335 334 333 333 333 335 339 352 7 15 15 16 15 13 10 8 5 3 1 359 358 356 354 355 359 4 10 14 15 14 12 15
329 326 324 323 321 321 323 324 325 325 326 327 328 330 331 332 332 331 329 328 328 329 328 326 324 325 331 338 335 332 330 329 331 333 335 336 336 336 336 335 334 334 336 340 351 11 24 21 19 17 14 11 8 6 4 1 359 356 353 351 350 353 358 4 8 9 8 6 8
327 325 324 322 321 321 322 324 325 326 327 328 330 332 333 333 333 332 332 331 331 331 330 327 324 325 331 338 337 335 333 333 334 335 337 339 339 339 338 337 336 336 338 342 353 15 35 28 21 17 15 12 8 5 3 1 358 356 353 350 349 350 354 359 3 4 5 3 2
327 326 325 323 322 322 322 324 326 328 329 330 332 333 333 334 334 334 334 334 332 331 330 329 327 327 329 336 338 337 336 336 336 336 338 340 342 342 341 339 338 338 341 344 355 20 41 40 26 17 14 12 8 4 0 359 357 355 353 351 349 349 351 356 0 3 4 4 1
327 327 326 324 322 322 323 326 328 329 330 330 332 333 334 335 335 336 335 335 333 332 331 330 331 331 332 335 338 339 338 337 336 337 338 341 343 345 344 342 340 341 343 341 356 21 39 41 34 25 15 10 7 3 360 357 357 356 355 353 352 352 353 356 360 2 4 5 4
328 327 327 325 323 324 326 328 328 328 329 330 333 334 335 335 335 335 336 336 334 332 331 332 335 336 337 336 337 338 338 337 336 337 338 340 343 345 346 344 342 342 342 341 4 25 36 34 34 32 26 11 6 2 359 356 356 357 357 356 355 356 357 358 359 0 1 3 5
329 329 328 325 325 326 328 329 328 328 329 332 334 335 335 335 335 336 336 336 333 332 332 334 336 338 338 336 337 338 338 337 336 335 337 340 343 345 345 343 342 339 340 348 16 26 28 26 29 31 30 20 8 2 359 356 357 358 358 358 358 359 0 1 360 359 359 1 6
330 329 328 326 328 330 330 330 329 329 331 333 334 334 334 334 335 336 336 336 334 334 334 336 337 338 338 338 338 338 337 336 335 335 336 340 343 344 344 342 340 336 340 355 15 20 19 20 25 28 31 28 14 3 0 0 0 0 1 1 0 1 2 3 1 0 0 2 6
330 329 328 328 329 331 332 331 330 330 331 332 333 333 333 334 336 337 337 336 336 336 337 337 336 336 336 337 338 338 338 337 336 336 337 340 343 343 342 340 337 333 337 351 3 8 11 17 22 27 30 30 21 6 358 2 3 4 4 3 3 3 4 6 6 5 4 3 6
330 329 328 327 329 331 332 331 329 329 331 333 334 334 334 335 337 338 337 336 336 336 336 336 334 334 334 336 337 339 339 339 338 337 338 341 342 342 340 338 337 333 334 343 353 0 6 14 20 26 30 32 27 18 6 6 8 8 7 6 4 4 5 7 10 11 10 7 8
328 328 327 327 330 331 331 329 327 329 333 337 337 336 337 337 338 337 336 334 334 334 335 335 334 334 334 336 338 339 339 339 339 339 340 341 341 339 337 336 338 334 335 341 349 357 5 12 18 25 30 33 29 22 13 13 14 13 11 7 5 4 4 5 9 12 12 11 11
327 327 328 329 332 332 330 326 326 331 338 341 340 339 338 338 337 335 333 331 333 335 336 337 336 335 336 338 339 339 340 342 340 340 340 341 339 338 337 338 340 338 339 345 352 359 6 11 18 25 31 34 31 25 18 17 17 15 13 9 7 5 4 4 7 10 13 14 13
327 328 330 332 334 333 330 325 329 337 344 345 343 341 340 338 336 335 333 332 334 336 337 337 336 335 336 338 337 337 339 343 340 338 337 339 338 339 341 341 339 339 342 347 354 0 7 12 19 26 33 36 33 25 19 19 17 14 11 8 6 4 3 4 5 7 10 14 15
328 330 332 334 335 334 330 327 335 344 349 346 344 342 340 338 337 336 334 333 335 336 337 336 335 334 335 338 335 336 339 344 339 336 336 337 339 342 345 345 339 342 344 346 350 356 3 12 22 30 37 37 33 24 18 19 17 14 10 6 3 1 0 1 2 3 5 10 15
331 332 334 335 336 334 331 331 342 350 350 347 344 342 340 338 337 335 333 333 335 335 335 335 335 336 337 338 335 335 338 342 338 337 338 339 341 345 347 346 341 344 346 347 348 352 359 10 24 36 42 38 29 18 15 18 17 13 8 5 1 358 356 355 358 359 359 2 15
332 333 335 336 336 335 333 336 347 351 350 346 344 342 340 338 337 334 333 334 335 335 335 335 336 338 339 339 335 335 337 341 338 338 340 343 344 347 349 346 343 345 347 348 347 350 355 5 27 45 47 40 24 12 11 15 15 12 8 5 1 355 352 350 352 354 356 357 17
333 334 335 336 336 335 336 340 347 349 348 345 342 341 339 337 336 334 334 336 336 336 335 335 338 339 339 339 335 334 335 338 338 339 341 344 345 347 349 347 344 344 346 347 347 349 353 4 30 53 52 39 23 12 10 11 11 10 8 5 360 355 351 346 348 352 356 358 20
333 333 334 335 336 336 338 343 347 347 344 342 340 339 338 337 336 335 335 337 337 335 335 336 338 338 338 338 335 334 334 336 339 340 341 343 344 348 350 347 343 342 343 345 348 349 353 4 29 54 60 41 26 15 12 12 11 9 7 4 359 355 352 347 347 351 356 1 17
333 333 333 334 334 335 338 343 345 343 341 338 338 337 338 339 337 336 335 335 335 334 334 335 336 336 336 338 337 336 335 335 337 340 341 342 344 348 350 348 343 340 341 343 347 350 354 3 29 55 70 49 31 19 15 14 13 11 8 4 359 356 354 351 350 352 357 2 11
331 332 332 332 332 334 337 341 342 340 337 336 336 337 337 338 336 335 334 333 333 334 334 335 334 334 335 338 337 337 337 337 337 339 340 342 343 347 350 348 342 340 340 342 347 351 356 5 31 60 80 61 34 20 16 16 17 15 11 6 3 0 357 355 354 355 357 1 5
330 331 330 330 329 331 335 339 339 337 335 334 334 335 336 335 334 333 333 332 333 334 335 335 334 333 334 336 336 338 341 341 340 339 339 340 341 345 347 346 342 341 340 341 346 351 357 7 33 64 88 83 44 23 19 19 20 18 13 7 6 4 2 359 358 358 358 358 1